Weather History for Tupelo, MS

Change the Weather History Date:

Saturday, July 21, 2012

  Actual Average Record
Temperature  
Mean Temperature 82 °F 82 °F  
Max Temperature 90 °F 92 °F 101 °F (1943)
Min Temperature 73 °F 71 °F 58 °F (1971)
Degree Days  
Heating Degree Days 0 0  
Month to date heating degree days 0 0  
Since 1 June heating degree days 0 0  
Since 1 July heating degree days 0 0  
Cooling Degree Days 17 17  
Month to date cooling degree days 393 346  
Year to date cooling degree days 1266 1018  
Since 1 June cooling degree days 792 741  
Growing Degree Days 32 (Base 50)    
Moisture  
Dew Point 74 °F    
Average Humidity 76    
Maximum Humidity 93    
Minimum Humidity 59    
Precipitation  
Precipitation 0.08 in 0.11 in 1.93 in (1953)
Month to date precipitation 5.09 2.70  
Year to date precipitation 27.59 31.82  
Snow  
Snow 0.00 in 0.00 in - ()
Month to date snowfall 0.0 0.0  
Since 1 June snowfall 0.0 0.0  
Since 1 July snowfall 0.0 0.0  
Snow Depth 0.00 in    
Sea Level Pressure  
Sea Level Pressure 29.98 in    
Wind  
Wind Speed 5 mph (SW)    
Max Wind Speed 17 mph    
Max Gust Speed 24 mph    
Visibility 10 miles    
Events Rain , Thunderstorm    
T = Trace of Precipitation, MM = Missing Value Source: NWS Daily Summary

Daily Weather History Graph

Daily Weather History Graph

Search for Another Location

Airport:

Trip Planner

Search our weather history database for the weather conditions in past years. The results will help you decide how hot, cold, wet, or windy it might be!

Date:

Astronomy

Jul. 21, 2012 Rise Set
Actual Time 5:58 AM CDT 8:04 PM CDT
Civil Twilight 5:30 AM CDT 8:32 PM CDT
Nautical Twilight 4:55 AM CDT 9:06 PM CDT
Astronomical Twilight 4:18 AM CDT 9:43 PM CDT
Moon 8:29 AM CDT (7/21) 9:27 PM CDT (7/21)
Length of Visible Light 15h 01m
Length of Day
14h 05m
Waxing Crescent, 7% of the Moon is Illuminated
Jul 21
Waxing Crescent
Jul 26
First Quarter
Aug 1
Full
Aug 9
Last Quarter
Aug 17
New

Hourly Weather History & Observations

Time (CDT) Temp. Heat Index Dew Point Humidity Pressure Visibility Wind Dir Wind Speed Gust Speed Precip Events Conditions
12:32 AM 82.4 °F 92.4 °F 78.8 °F 89% 29.95 in 10.0 mi SSE 5.8 mph - 0.01 in   Overcast
12:53 AM 82.0 °F 91.6 °F 79.0 °F 90% 29.93 in 10.0 mi SE 4.6 mph - 0.01 in   Overcast
1:25 AM 82.4 °F 92.4 °F 78.8 °F 89% 29.92 in 10.0 mi SE 4.6 mph - N/A Thunderstorm Thunderstorm
1:45 AM 80.6 °F 88.1 °F 78.8 °F 94% 29.95 in 10.0 mi NNE 3.5 mph - N/A Thunderstorm Thunderstorm
1:53 AM 78.1 °F - 75.9 °F 93% 29.93 in 10.0 mi NE 10.4 mph - N/A Thunderstorm Thunderstorm
2:04 AM 78.8 °F - 77.0 °F 94% 29.93 in 10.0 mi NW 8.1 mph - N/A   Overcast
2:13 AM 78.8 °F - 73.4 °F 83% 29.95 in 10.0 mi WNW 12.7 mph 24.2 mph 0.01 in Rain , Thunderstorm Light Rain
2:22 AM 75.2 °F - 71.6 °F 89% 29.94 in 6.0 mi WSW 12.7 mph 23.0 mph 0.03 in Rain , Thunderstorm Heavy Thunderstorms and Rain
2:32 AM 73.4 °F - 71.6 °F 94% 29.93 in 6.0 mi Variable 3.5 mph - 0.08 in Rain , Thunderstorm Light Thunderstorms and Rain
2:39 AM 75.2 °F - 69.8 °F 83% 29.94 in 10.0 mi North 5.8 mph - 0.08 in Thunderstorm Thunderstorm
2:53 AM 73.9 °F - 70.0 °F 87% 29.94 in 10.0 mi West 4.6 mph - 0.08 in Thunderstorm Thunderstorm
3:24 AM 73.4 °F - 69.8 °F 88% 29.95 in 10.0 mi WSW 3.5 mph - N/A   Clear
3:53 AM 73.0 °F - 71.1 °F 93% 29.92 in 10.0 mi North 4.6 mph - N/A   Clear
4:53 AM 73.0 °F - 71.1 °F 93% 29.94 in 10.0 mi Calm Calm - N/A   Scattered Clouds
5:03 AM 73.4 °F - 71.6 °F 94% 29.96 in 10.0 mi Calm Calm - N/A   Mostly Cloudy
5:53 AM 73.9 °F - 71.1 °F 91% 29.98 in 10.0 mi SSW 8.1 mph - N/A   Overcast
6:07 AM 73.4 °F - 71.6 °F 94% 29.98 in 10.0 mi SSW 4.6 mph - N/A Thunderstorm Thunderstorm
6:51 AM 73.4 °F - 71.6 °F 94% 29.98 in 10.0 mi Calm Calm - N/A   Overcast
6:53 AM 73.9 °F - 71.1 °F 91% 29.97 in 10.0 mi Calm Calm - N/A   Overcast
7:53 AM 75.0 °F - 72.0 °F 90% 29.99 in 10.0 mi SSE 3.5 mph - N/A   Overcast
8:13 AM 75.2 °F - 73.4 °F 94% 30.01 in 10.0 mi South 3.5 mph - N/A   Overcast
8:22 AM 75.2 °F - 73.4 °F 94% 30.00 in 10.0 mi SSW 3.5 mph - N/A   Overcast
8:53 AM 77.0 °F - 73.9 °F 90% 29.99 in 10.0 mi SW 5.8 mph - N/A   Overcast
9:08 AM 78.8 °F - 73.4 °F 83% 30.00 in 10.0 mi SW 5.8 mph - N/A   Overcast
9:21 AM 78.8 °F - 73.4 °F 83% 30.01 in 10.0 mi WSW 4.6 mph - N/A   Overcast
9:40 AM 78.8 °F - 73.4 °F 83% 30.01 in 10.0 mi WSW 5.8 mph - N/A   Overcast
9:53 AM 81.0 °F 86.2 °F 73.9 °F 79% 30.00 in 10.0 mi WSW 5.8 mph - N/A   Overcast
10:53 AM 82.0 °F 87.9 °F 73.9 °F 76% 30.01 in 10.0 mi Variable 4.6 mph - N/A   Overcast
11:01 AM 82.4 °F 88.2 °F 73.4 °F 74% 30.02 in 10.0 mi West 6.9 mph - N/A   Overcast
11:53 AM 82.9 °F 89.4 °F 73.9 °F 74% 30.01 in 10.0 mi WSW 3.5 mph - N/A   Overcast
12:53 PM 84.0 °F 90.2 °F 73.0 °F 69% 30.01 in 10.0 mi Variable 3.5 mph - N/A   Overcast
1:53 PM 86.0 °F 93.8 °F 73.9 °F 67% 30.01 in 10.0 mi WSW 5.8 mph - N/A   Overcast
2:03 PM 86.0 °F 93.4 °F 73.4 °F 66% 30.02 in 10.0 mi Calm Calm - N/A   Overcast
2:15 PM 87.8 °F 95.6 °F 73.4 °F 62% 30.01 in 10.0 mi Variable 4.6 mph - N/A   Overcast
2:37 PM 86.0 °F 93.4 °F 73.4 °F 66% 30.00 in 10.0 mi Calm Calm - N/A   Mostly Cloudy
2:53 PM 87.1 °F 93.6 °F 72.0 °F 61% 29.99 in 10.0 mi Calm Calm - N/A   Partly Cloudy
3:53 PM 90.0 °F 99.0 °F 73.9 °F 59% 29.97 in 10.0 mi South 6.9 mph - N/A   Mostly Cloudy
4:53 PM 89.1 °F 97.0 °F 73.0 °F 59% 29.95 in 10.0 mi South 9.2 mph - N/A   Partly Cloudy
5:53 PM 87.1 °F 95.4 °F 73.9 °F 65% 29.96 in 10.0 mi SSW 8.1 mph - N/A   Partly Cloudy
6:53 PM 86.0 °F 95.1 °F 75.0 °F 70% 29.97 in 10.0 mi SSW 8.1 mph - N/A   Clear
7:53 PM 84.0 °F 91.9 °F 75.0 °F 74% 29.99 in 10.0 mi South 5.8 mph - N/A   Clear
8:53 PM 80.1 °F 84.5 °F 73.9 °F 81% 30.00 in 10.0 mi South 4.6 mph - N/A   Clear
9:53 PM 79.0 °F - 73.9 °F 84% 30.00 in 10.0 mi Calm Calm - N/A   Clear
10:53 PM 78.1 °F - 73.0 °F 84% 30.01 in 10.0 mi Calm Calm - N/A   Clear
11:53 PM 78.1 °F - 72.0 °F 81% 30.02 in 10.0 mi Calm Calm - N/A   Clear